Information Letters
Instructions: More Information:

An information letter provides general statements of well-defined law without applying them to a specific set of facts. They are furnished by the IRS National Office in response to requests for general information by taxpayers, by congress-persons on behalf of constituents, or by congress-persons on their own behalf.

More about Information Letters

NOTE: Information letters are advisory only and have no binding effect on the IRS.

  1. Enter a term in the Find Box.
  2. Select a category (column heading) in the drop down.
  3. Click Find.
Find Help

901 - 1,000 of 2,951 files Show per page:  25 50 100 200 « Previous | 6 7 8 9 10 11 12 13 14 15 | Next » 
Number Not sorted Help on Number UILC Not sorted Help on UILC Subject Not sorted Help on Subject Released Sorted Descending Help on Released
2000-0028 00 Bequests, etc., to Surviving Spouse (Marital Deduction v. No Mari 07/28/2012
2000-0004 4261.00-00 Transportation of Persons by Air (Taxable v. Nontaxable) 07/28/2012
2000-0001 etter 2000-0001 Definitions Relating to Corporate Reorganizations (UILC 368.00-00). 07/28/2012
2012-0022 3101.00-00 Rate and Measure of Employee Tax 07/27/2012
2012-0019 61.00-00; 108.01-02; 108.02-00 Gross Income v. Not Gross Income; Insolvent Taxpayer; Reduction of Tax Attributes 07/27/2012
2012-0018 164.00-00 Taxes 07/27/2012
2012-0014 61.15-03 Bond 07/27/2012
2012-0008 132.04-01 In General 07/27/2012
2012-0001 501.03-00 Religious, Charitable, etc., Institutions and Community Chest 07/27/2012
2011-0098 882.00-00; 894.00-00 Tax on Income of Foreign Corporations Connected with United States Business; Income Affected by Treaty 07/27/2012
2011-0095 3406.07-00; 3121.04-01 Exceptions to Backup Withholding; Common Law Tests 07/27/2012
2011-0092 104.03-00 Damages 07/27/2012
2011-0088 25D.00-00; 136.00-00 Residential Energy Efficient Property; Energy Conservation Subsidies Provided by Public Utilities 07/27/2012
2011-0085 45Q.00-00 Carbon Dioxide Sequestration Credit 07/27/2012
2011-0082 3121.00-00 Definitions 07/27/2012
2011-0079 9999.98-00 Not Able to Identify Under Present List 07/27/2012
2011-0076 3402.03-00 Accountability and Liability of Employer for Failure to Withhold 07/27/2012
2011-0073 30D.00-00 Credit for New Qualified Plug in Electric Vehicles 07/27/2012
2011-0072 179D.00-00 Energy Efficient Commercial Building Property Deduction 07/27/2012
2011-0069 172.00-00 Net Operating Loss Deductions (Deductible v. Not Deductible) 07/27/2012
2011-0066 61.00-00 Gross Income v. Not Gross Income 07/27/2012
2011-0063 61.00-00 Gross Income v. Not Gross Income 07/27/2012
2011-0060 36.00-00 First-Time Homebuyer Credit 07/27/2012
2011-0059 25D.00-00 Residential Energy Efficient Property 07/27/2012
2011-0056 61.00-00 Gross Income v. Not Gross Income 07/27/2012
2011-0053 61.00-00; 108.05-00 Gross Income v. Not Gross Income; Student Loans 07/27/2012
2011-0050 362.00-00; 362.01-01 Basis to Corporations; Estimation of Basis 07/27/2012
2011-0047 122.00-00 Certain Reduced Uniform Services Retirement Pay 07/27/2012
2011-0044 3121.02-07 Mandatory Coverage of State, etc., Employees 07/27/2012
2011-0040 86.00-00 Social Security and Tier 1 Railroad Retirement Benefits 07/27/2012
2011-0037 152.08-00 Support Test for Children of Divorced Parents 07/27/2012
2011-0034 3121.17-00 Benefits Provided Under Certain Employee Benefit Plans 07/27/2012
2011-0031 25D.00-00; 61.00-00; 136.00-00 Residential Energy Efficient Property; Gross Income v. Not Gross Income; Energy Conservation Subsidies Provided by Public Utilities 07/27/2012
2011-0028 172.01-00 Carryback and Carryover 07/27/2012
2011-0025 162.00-00 Trade or Business (Deductible v. Not Deductible) 07/27/2012
2011-0024 280E.00-00 Expenditures In Connection With the Illegal Sale of Drugs 07/27/2012
2011-0021 213.00-00 Medical, Dental, etc., Expenses 07/27/2012
2011-0018 36A.00-00 Making Work Pay Credit 07/27/2012
2011-0015 25C.00-00 Non-Business Energy Property 07/27/2012
2011-0012 61.00-00 Gross Income v. Not Gross Income 07/27/2012
2011-0011 3121.02-00 Employment 07/27/2012
2011-0008 30B.00-00 Alternative Technology Motor Vehicles Credit (incl. qualified fuel cell, advanced lean burn technology, hybrid, and alternative fuel vehicles) 07/27/2012
2011-0005 280E.00-00 Expenditures In Connection With the Illegal Sale of Drugs 07/27/2012
2011-0002 3201.00-00 Rate and Measure of Tax on Employees 07/27/2012
2010-0253 44.61-00; 44.62-00 Eligible Small Business; Eligible Access Expenditures 07/27/2012
2010-0249 1362.02-01 Revocation 07/27/2012
2010-0245 1.11-00 Maximum Capital Gains Rate 07/27/2012
2010-0242 162.05-21 Reimbursement of Another's Legal Expenses 07/27/2012
2010-0239 3121.02-10 Student Employee of School, etc. 07/27/2012
2010-0236 1033.09-00 Special Rule For Drought-Afflicted Livestock 07/27/2012
2010-0233 61.00-00 Gross Income v. Not Gross Income 07/27/2012
2010-0230 166.04-00; 1211.00-00 Nonbusiness Debt; Limitation on Capital Losses 07/27/2012
2010-0229 9999.98-00 Not Able to Identify Under Present List 07/27/2012
2010-0226 501.38-00 Activities Legislative and Political Propaganda 07/27/2012
2010-0224 162.00-00 Trade or Business (Deductible v. Not Deductible) 07/27/2012
2010-0221 30.00-00 Credit for Qualified Electric Vehicles 07/27/2012
2010-0218 162.00-00 Trade or Business (Deductible v. Not Deductible) 07/27/2012
2010-0217 36A.00-00 Making Work Pay Credit 07/27/2012
2010-0215 62.00-00 Adjusted Gross Income Defined 07/27/2012
2010-0214 36.00-00 First-Time Homebuyer Credit 07/27/2012
2010-0211 932.00-00; 30D.00-00 Coordination of United States and Virgin Islands Income Taxes; Credit for New Qualified Plug in Electric Vehicles 07/27/2012
2010-0208 312.01-00 Computations of Earnings and Profits 07/27/2012
2010-0205 901.01-03 Definition of Income Tax 07/27/2012
2010-0202 61.00-00 Gross Income v. Not Gross Income 07/27/2012
2010-0201 25C.00-00 Non-Business Energy Property 07/27/2012
2010-0198 3111.00-00 Liability and Payment of Employer Tax 07/27/2012
2010-0195 6051.00-00 Receipts for Employees 07/27/2012
2010-0192 61.40-00 Governmental Benefits and Subsidies 07/27/2012
2010-0189 36.00-00 First-Time Homebuyer Credit 07/27/2012
2010-0186 36.00-00 First-Time Homebuyer Credit 07/27/2012
2010-0183 36.00-00 First-Time Homebuyer Credit 07/27/2012
2010-0182 36.00-00 First-Time Homebuyer Credit 07/27/2012
2010-0179 3504.00-00 Acts to be Performed by Agents 07/27/2012
2010-0176 36.00-00 First-Time Homebuyer Credit 07/27/2012
2010-0173 213.00-00 Medical, Dental, etc., Expenses 07/27/2012
2010-0170 1211.00-00 Limitation on Capital Losses 07/27/2012
2010-0167 36.00-00 First-Time Homebuyer Credit 07/27/2012
2010-0166 36.00-00 First-Time Homebuyer Credit 07/27/2012
2010-0163 179.03-01 Dollar Limitation 07/27/2012
2010-0160 36.00-00 First-Time Homebuyer Credit 07/27/2012
2010-0157 165.00-00 Deductions For Losses 07/27/2012
2010-0154 754.02-00; 9100.15-00 Timeliness of Election; Section 754; Manner of Electing Optional Adjustment to Basis of Partnership Property 07/27/2012
2010-0153 170.00-00 Charitable, Etc. Contributions and Gifts 07/27/2012
2010-0150 1441.00-00; 86.00-00; 7701.06-00; 3121.00-00 Withholding of Tax on Nonresident Aliens (Required v. Not Required); Social Security and Tier 1 Railroad Retirement Benefits; Person; Definitions 07/27/2012
2010-0147 162.00-00 Trade or Business (Deductible v. Not Deductible) 07/27/2012
2010-0144 36A.00-00 Making Work Pay Credit 07/27/2012
2010-0141 61.00-00 Gross Income v. Not Gross Income 07/27/2012
2010-0138 85.00-00 Unemployment Compensation 07/27/2012
2010-0135 6402.00-00 Authority to Make Credits or Refunds 07/27/2012
2010-0134 61.22-00 Discharge of Indebtedness 07/27/2012
2010-0131 36.00-00 First-Time Homebuyer Credit 07/27/2012
2010-0128 1.01-00; 2.04-00; 871.02-07 Citizens or Residents; Nonresident Aliens; Engaged in U.S. Trade or Business or Treated as Having Effectively Connected Income 07/27/2012
2010-0125 1.00-00 Tax Imposed 07/27/2012
2010-0122 3111.00-00 Liability and Payment of Employer Tax 07/27/2012
2010-0119 164.00-00 Taxes 07/27/2012
2010-0118 117.00-00 Qualified Scholarships 07/27/2012
2010-0115 162.08-00; 170.15-00 ; 213.05-01 Travel (See Also Issues 162.12-06 and 162.13-03); Standard Mileage Rate; Travel 07/27/2012
2010-0112 36.00-00 First-Time Homebuyer Credit 07/27/2012
2010-0109 25D.00-00; 136.00-00 Residential Energy Efficient Property; Energy Conservation Subsidies Provided by Public Utilities 07/27/2012
2010-0106 36.00-00 First-Time Homebuyer Credit 07/27/2012

« Previous | 6 7 8 9 10 11 12 13 14 15 | Next » 
Official Adobe Website
Get Adobe ® Reader